Year,Month,Day,Hour,Minute,Value (Times are PST for temperature in C)
2015,06,26,00,00,19.30
2015,06,26,00,01,19.30
2015,06,26,00,02,19.20
2015,06,26,00,03,19.20
2015,06,26,00,04,19.20
2015,06,26,00,05,19.20
2015,06,26,00,06,19.20
2015,06,26,00,07,19.10
2015,06,26,00,08,19.10
2015,06,26,00,09,19.10
2015,06,26,00,10,19.10
2015,06,26,00,11,19.10
2015,06,26,00,12,19.00
2015,06,26,00,13,19.00
2015,06,26,00,14,18.90
2015,06,26,00,15,18.90
2015,06,26,00,16,18.90
2015,06,26,00,17,18.90
2015,06,26,00,18,18.80
2015,06,26,00,19,18.80
2015,06,26,00,20,18.80
2015,06,26,00,21,18.80
2015,06,26,00,22,18.80
2015,06,26,00,23,18.70
2015,06,26,00,24,18.70
2015,06,26,00,25,18.70
2015,06,26,00,26,18.70
2015,06,26,00,27,18.70
2015,06,26,00,28,18.70
2015,06,26,00,29,18.70
2015,06,26,00,30,18.60
2015,06,26,00,31,18.60
2015,06,26,00,32,18.60
2015,06,26,00,33,18.60
2015,06,26,00,34,18.60
2015,06,26,00,35,18.60
2015,06,26,00,36,18.60
2015,06,26,00,37,18.50
2015,06,26,00,38,18.50
2015,06,26,00,39,18.50
2015,06,26,00,40,18.40
2015,06,26,00,41,18.40
2015,06,26,00,42,18.40
2015,06,26,00,43,18.40
2015,06,26,00,44,18.30
2015,06,26,00,45,18.30
2015,06,26,00,46,18.30
2015,06,26,00,47,18.30
2015,06,26,00,48,18.30
2015,06,26,00,49,18.20
2015,06,26,00,50,18.20
2015,06,26,00,51,18.20
2015,06,26,00,52,18.20
2015,06,26,00,53,18.10
2015,06,26,00,54,18.10
2015,06,26,00,55,18.10
2015,06,26,00,56,18.10
2015,06,26,00,57,18.10
2015,06,26,00,58,18.10
2015,06,26,00,59,18.00
2015,06,26,01,00,18.00
2015,06,26,01,01,18.00
2015,06,26,01,02,17.90
2015,06,26,01,03,17.90
2015,06,26,01,04,17.90
2015,06,26,01,05,17.80
2015,06,26,01,06,17.80
2015,06,26,01,07,17.80
2015,06,26,01,08,17.80
2015,06,26,01,09,17.70
2015,06,26,01,10,17.70
2015,06,26,01,11,17.70
2015,06,26,01,12,17.70
2015,06,26,01,13,17.70
2015,06,26,01,14,17.70
2015,06,26,01,15,17.70
2015,06,26,01,16,17.70
2015,06,26,01,17,17.70
2015,06,26,01,18,17.70
2015,06,26,01,19,17.60
2015,06,26,01,20,17.60
2015,06,26,01,21,17.60
2015,06,26,01,22,17.60
2015,06,26,01,23,17.60
2015,06,26,01,24,17.60
2015,06,26,01,25,17.60
2015,06,26,01,26,17.50
2015,06,26,01,27,17.50
2015,06,26,01,28,17.50
2015,06,26,01,29,17.50
2015,06,26,01,30,17.40
2015,06,26,01,31,17.40
2015,06,26,01,32,17.40
2015,06,26,01,33,17.40
2015,06,26,01,34,17.40
2015,06,26,01,35,17.40
2015,06,26,01,36,17.40
2015,06,26,01,37,17.30
2015,06,26,01,38,17.30
2015,06,26,01,39,17.30
2015,06,26,01,40,17.30
2015,06,26,01,41,17.30
2015,06,26,01,42,17.30
2015,06,26,01,43,17.30
2015,06,26,01,44,17.30
2015,06,26,01,45,17.30
2015,06,26,01,46,17.30
2015,06,26,01,47,17.20
2015,06,26,01,48,17.20
2015,06,26,01,49,17.20
2015,06,26,01,50,17.20
2015,06,26,01,51,17.20
2015,06,26,01,52,17.20
2015,06,26,01,53,17.20
2015,06,26,01,54,17.20
2015,06,26,01,55,17.20
2015,06,26,01,56,17.20
2015,06,26,01,57,17.20
2015,06,26,01,58,17.20
2015,06,26,01,59,17.20
2015,06,26,02,00,17.10
2015,06,26,02,01,17.10
2015,06,26,02,02,17.10
2015,06,26,02,03,17.10
2015,06,26,02,04,17.10
2015,06,26,02,05,17.10
2015,06,26,02,06,17.10
2015,06,26,02,07,17.00
2015,06,26,02,08,17.00
2015,06,26,02,09,17.00
2015,06,26,02,10,17.00
2015,06,26,02,11,17.00
2015,06,26,02,12,17.00
2015,06,26,02,13,17.00
2015,06,26,02,14,17.00
2015,06,26,02,15,17.00
2015,06,26,02,16,17.00
2015,06,26,02,17,16.90
2015,06,26,02,18,16.90
2015,06,26,02,19,16.90
2015,06,26,02,20,16.90
2015,06,26,02,21,16.90
2015,06,26,02,22,16.90
2015,06,26,02,23,16.90
2015,06,26,02,24,16.90
2015,06,26,02,25,16.90
2015,06,26,02,26,16.90
2015,06,26,02,27,16.90
2015,06,26,02,28,16.90
2015,06,26,02,29,16.80
2015,06,26,02,30,16.80
2015,06,26,02,31,16.70
2015,06,26,02,32,16.70
2015,06,26,02,33,16.70
2015,06,26,02,34,16.70
2015,06,26,02,35,16.70
2015,06,26,02,36,16.60
2015,06,26,02,37,16.60
2015,06,26,02,38,16.60
2015,06,26,02,39,16.60
2015,06,26,02,40,16.60
2015,06,26,02,41,16.60
2015,06,26,02,42,16.60
2015,06,26,02,43,16.60
2015,06,26,02,44,16.60
2015,06,26,02,45,16.60
2015,06,26,02,46,16.60
2015,06,26,02,47,16.60
2015,06,26,02,48,16.50
2015,06,26,02,49,16.50
2015,06,26,02,50,16.50
2015,06,26,02,51,16.50
2015,06,26,02,52,16.50
2015,06,26,02,53,16.50
2015,06,26,02,54,16.50
2015,06,26,02,55,16.60
2015,06,26,02,56,16.60
2015,06,26,02,57,16.60
2015,06,26,02,58,16.60
2015,06,26,02,59,16.60
2015,06,26,03,00,16.60
2015,06,26,03,01,16.60
2015,06,26,03,02,16.60
2015,06,26,03,03,16.60
2015,06,26,03,04,16.50
2015,06,26,03,05,16.50
2015,06,26,03,06,16.50
2015,06,26,03,07,16.50
2015,06,26,03,08,16.50
2015,06,26,03,09,16.50
2015,06,26,03,10,16.50
2015,06,26,03,11,16.50
2015,06,26,03,12,16.40
2015,06,26,03,13,16.40
2015,06,26,03,14,16.40
2015,06,26,03,15,16.40
2015,06,26,03,16,16.40
2015,06,26,03,17,16.40
2015,06,26,03,18,16.40
2015,06,26,03,19,16.30
2015,06,26,03,20,16.30
2015,06,26,03,21,16.30
2015,06,26,03,22,16.20
2015,06,26,03,23,16.20
2015,06,26,03,24,16.20
2015,06,26,03,25,16.10
2015,06,26,03,26,16.10
2015,06,26,03,27,16.10
2015,06,26,03,28,16.00
2015,06,26,03,29,16.00
2015,06,26,03,30,16.00
2015,06,26,03,31,15.90
2015,06,26,03,32,15.90
2015,06,26,03,33,15.90
2015,06,26,03,34,15.90
2015,06,26,03,35,15.90
2015,06,26,03,36,15.90
2015,06,26,03,37,15.80
2015,06,26,03,38,15.80
2015,06,26,03,39,15.80
2015,06,26,03,40,15.80
2015,06,26,03,41,15.80
2015,06,26,03,42,15.80
2015,06,26,03,43,15.80
2015,06,26,03,44,15.80
2015,06,26,03,45,15.90
2015,06,26,03,46,15.90
2015,06,26,03,47,15.90
2015,06,26,03,48,15.90
2015,06,26,03,49,15.90
2015,06,26,03,50,15.90
2015,06,26,03,51,15.90
2015,06,26,03,52,16.00
2015,06,26,03,53,16.00
2015,06,26,03,54,16.00
2015,06,26,03,55,16.00
2015,06,26,03,56,16.00
2015,06,26,03,57,16.00
2015,06,26,03,58,15.90
2015,06,26,03,59,15.90
2015,06,26,04,00,15.90
2015,06,26,04,01,15.90
2015,06,26,04,02,15.90
2015,06,26,04,03,15.90
2015,06,26,04,04,15.90
2015,06,26,04,05,15.90
2015,06,26,04,06,15.90
2015,06,26,04,07,15.80
2015,06,26,04,08,15.80
2015,06,26,04,09,15.80
2015,06,26,04,10,15.80
2015,06,26,04,11,15.80
2015,06,26,04,12,15.70
2015,06,26,04,13,15.70
2015,06,26,04,14,15.70
2015,06,26,04,15,15.70
2015,06,26,04,16,15.70
2015,06,26,04,17,15.60
2015,06,26,04,18,15.60
2015,06,26,04,19,15.60
2015,06,26,04,20,15.60
2015,06,26,04,21,15.60
2015,06,26,04,22,15.60
2015,06,26,04,23,15.50
2015,06,26,04,24,15.50
2015,06,26,04,25,15.50
2015,06,26,04,26,15.40
2015,06,26,04,27,15.40
2015,06,26,04,28,15.40
2015,06,26,04,29,15.50
2015,06,26,04,30,15.50
2015,06,26,04,31,15.50
2015,06,26,04,32,15.50
2015,06,26,04,33,15.50
2015,06,26,04,34,15.50
2015,06,26,04,35,15.50
2015,06,26,04,36,15.50
2015,06,26,04,37,15.50
2015,06,26,04,38,15.40
2015,06,26,04,39,15.40
2015,06,26,04,40,15.40
2015,06,26,04,41,15.40
2015,06,26,04,42,15.40
2015,06,26,04,43,15.40
2015,06,26,04,44,15.40
2015,06,26,04,45,15.40
2015,06,26,04,46,15.50
2015,06,26,04,47,15.50
2015,06,26,04,48,15.50
2015,06,26,04,49,15.50
2015,06,26,04,50,15.50
2015,06,26,04,51,15.50
2015,06,26,04,52,15.50
2015,06,26,04,53,15.50
2015,06,26,04,54,15.50
2015,06,26,04,55,15.50
2015,06,26,04,56,15.50
2015,06,26,04,57,15.40
2015,06,26,04,58,15.40
2015,06,26,04,59,15.40
2015,06,26,05,00,15.40
2015,06,26,05,01,15.40
2015,06,26,05,02,15.40
2015,06,26,05,03,15.40
2015,06,26,05,04,15.40
2015,06,26,05,05,15.40
2015,06,26,05,06,15.40
2015,06,26,05,07,15.40
2015,06,26,05,08,15.40
2015,06,26,05,09,15.40
2015,06,26,05,10,15.40
2015,06,26,05,11,15.40
2015,06,26,05,12,15.40
2015,06,26,05,13,15.40
2015,06,26,05,14,15.40
2015,06,26,05,15,15.30
2015,06,26,05,16,15.30
2015,06,26,05,17,15.30
2015,06,26,05,18,15.30
2015,06,26,05,19,15.30
2015,06,26,05,20,15.30
2015,06,26,05,21,15.30
2015,06,26,05,22,15.30
2015,06,26,05,23,15.30
2015,06,26,05,24,15.30
2015,06,26,05,25,15.30
2015,06,26,05,26,15.30
2015,06,26,05,27,15.20
2015,06,26,05,28,15.20
2015,06,26,05,29,15.20
2015,06,26,05,30,15.20
2015,06,26,05,31,15.20
2015,06,26,05,32,15.20
2015,06,26,05,33,15.10
2015,06,26,05,34,15.10
2015,06,26,05,35,15.10
2015,06,26,05,36,15.10
2015,06,26,05,37,15.10
2015,06,26,05,38,15.10
2015,06,26,05,39,15.10
2015,06,26,05,40,15.10
2015,06,26,05,41,15.10
2015,06,26,05,42,15.10
2015,06,26,05,43,15.10
2015,06,26,05,44,15.10
2015,06,26,05,45,15.10
2015,06,26,05,46,15.10
2015,06,26,05,47,15.10
2015,06,26,05,48,15.10
2015,06,26,05,49,15.10
2015,06,26,05,50,15.10
2015,06,26,05,51,15.10
2015,06,26,05,52,15.10
2015,06,26,05,53,15.10
2015,06,26,05,54,15.10
2015,06,26,05,55,15.10
2015,06,26,05,56,15.10
2015,06,26,05,57,15.10
2015,06,26,05,58,15.10
2015,06,26,05,59,15.20
2015,06,26,06,00,15.20
2015,06,26,06,01,15.20
2015,06,26,06,02,15.20
2015,06,26,06,03,15.30
2015,06,26,06,04,15.30
2015,06,26,06,05,15.30
2015,06,26,06,06,15.40
2015,06,26,06,07,15.40
2015,06,26,06,08,15.40
2015,06,26,06,09,15.50
2015,06,26,06,10,15.50
2015,06,26,06,11,15.60
2015,06,26,06,12,15.60
2015,06,26,06,13,15.60
2015,06,26,06,14,15.70
2015,06,26,06,15,15.70
2015,06,26,06,16,15.70
2015,06,26,06,17,15.80
2015,06,26,06,18,15.80
2015,06,26,06,19,15.80
2015,06,26,06,20,15.80
2015,06,26,06,21,15.80
2015,06,26,06,22,15.80
2015,06,26,06,23,15.90
2015,06,26,06,24,15.90
2015,06,26,06,25,15.90
2015,06,26,06,26,16.00
2015,06,26,06,27,16.00
2015,06,26,06,28,16.10
2015,06,26,06,29,16.20
2015,06,26,06,30,16.20
2015,06,26,06,31,16.30
2015,06,26,06,32,16.30
2015,06,26,06,33,16.40
2015,06,26,06,34,16.40
2015,06,26,06,35,16.50
2015,06,26,06,36,16.60
2015,06,26,06,37,16.70
2015,06,26,06,38,16.80
2015,06,26,06,39,16.80
2015,06,26,06,40,16.90
2015,06,26,06,41,17.00
2015,06,26,06,42,17.10
2015,06,26,06,43,17.20
2015,06,26,06,44,17.20
2015,06,26,06,45,17.30
2015,06,26,06,46,17.40
2015,06,26,06,47,17.50
2015,06,26,06,48,17.60
2015,06,26,06,49,17.70
2015,06,26,06,50,17.80
2015,06,26,06,51,17.90
2015,06,26,06,52,18.00
2015,06,26,06,53,18.10
2015,06,26,06,54,18.20
2015,06,26,06,55,18.30
2015,06,26,06,56,18.30
2015,06,26,06,57,18.30
2015,06,26,06,58,18.40
2015,06,26,06,59,18.40
2015,06,26,07,00,18.40
2015,06,26,07,01,18.40
2015,06,26,07,02,18.40
2015,06,26,07,03,18.40
2015,06,26,07,04,18.40
2015,06,26,07,05,18.40
2015,06,26,07,06,18.40
2015,06,26,07,07,18.50
2015,06,26,07,08,18.50
2015,06,26,07,09,18.60
2015,06,26,07,10,18.60
2015,06,26,07,11,18.70
2015,06,26,07,12,18.70
2015,06,26,07,13,18.80
2015,06,26,07,14,18.80
2015,06,26,07,15,18.90
2015,06,26,07,16,19.00
2015,06,26,07,17,19.00
2015,06,26,07,18,19.10
2015,06,26,07,19,19.20
2015,06,26,07,20,19.30
2015,06,26,07,21,19.30
2015,06,26,07,22,19.40
2015,06,26,07,23,19.50
2015,06,26,07,24,19.60
2015,06,26,07,25,19.60
2015,06,26,07,26,19.70
2015,06,26,07,27,19.70
2015,06,26,07,28,19.80
2015,06,26,07,29,19.80
2015,06,26,07,30,19.90
2015,06,26,07,31,20.00
2015,06,26,07,32,20.10
2015,06,26,07,33,20.20
2015,06,26,07,34,20.20
2015,06,26,07,35,20.30
2015,06,26,07,36,20.30
2015,06,26,07,37,20.30
2015,06,26,07,38,20.40
2015,06,26,07,39,20.40
2015,06,26,07,40,20.40
2015,06,26,07,41,20.50
2015,06,26,07,42,20.50
2015,06,26,07,43,20.50
2015,06,26,07,44,20.60
2015,06,26,07,45,20.60
2015,06,26,07,46,20.70
2015,06,26,07,47,20.70
2015,06,26,07,48,20.80
2015,06,26,07,49,20.90
2015,06,26,07,50,20.90
2015,06,26,07,51,21.00
2015,06,26,07,52,21.00
2015,06,26,07,53,21.10
2015,06,26,07,54,21.10
2015,06,26,07,55,21.10
2015,06,26,07,56,21.10
2015,06,26,07,57,21.10
2015,06,26,07,58,21.20
2015,06,26,07,59,21.20
2015,06,26,08,00,21.30
2015,06,26,08,01,21.40
2015,06,26,08,02,21.40
2015,06,26,08,03,21.50
2015,06,26,08,04,21.50
2015,06,26,08,05,21.60
2015,06,26,08,06,21.60
2015,06,26,08,07,21.60
2015,06,26,08,08,21.60
2015,06,26,08,09,21.60
2015,06,26,08,10,21.60
2015,06,26,08,11,21.60
2015,06,26,08,12,21.60
2015,06,26,08,13,21.60
2015,06,26,08,14,21.60
2015,06,26,08,15,21.60
2015,06,26,08,16,21.60
2015,06,26,08,17,21.60
2015,06,26,08,18,21.60
2015,06,26,08,19,21.60
2015,06,26,08,20,21.60
2015,06,26,08,21,21.70
2015,06,26,08,22,21.70
2015,06,26,08,23,21.70
2015,06,26,08,24,21.70
2015,06,26,08,25,21.80
2015,06,26,08,26,21.80
2015,06,26,08,27,21.90
2015,06,26,08,28,21.90
2015,06,26,08,29,21.90
2015,06,26,08,30,22.00
2015,06,26,08,31,22.00
2015,06,26,08,32,22.10
2015,06,26,08,33,22.10
2015,06,26,08,34,22.20
2015,06,26,08,35,22.20
2015,06,26,08,36,22.20
2015,06,26,08,37,22.10
2015,06,26,08,38,22.10
2015,06,26,08,39,22.00
2015,06,26,08,40,21.90
2015,06,26,08,41,21.90
2015,06,26,08,42,21.80
2015,06,26,08,43,21.80
2015,06,26,08,44,21.80
2015,06,26,08,45,21.90
2015,06,26,08,46,21.90
2015,06,26,08,47,21.90
2015,06,26,08,48,21.90
2015,06,26,08,49,21.90
2015,06,26,08,50,21.80
2015,06,26,08,51,21.90
2015,06,26,08,52,21.90
2015,06,26,08,53,21.90
2015,06,26,08,54,22.00
2015,06,26,08,55,22.00
2015,06,26,08,56,22.10
2015,06,26,08,57,22.10
2015,06,26,08,58,22.20
2015,06,26,08,59,22.20
2015,06,26,09,00,22.20
2015,06,26,09,01,22.20
2015,06,26,09,02,22.20
2015,06,26,09,03,22.20
2015,06,26,09,04,22.20
2015,06,26,09,05,22.30
2015,06,26,09,06,22.30
2015,06,26,09,07,22.30
2015,06,26,09,08,22.30
2015,06,26,09,09,22.40
2015,06,26,09,10,22.50
2015,06,26,09,11,22.50
2015,06,26,09,12,22.60
2015,06,26,09,13,22.60
2015,06,26,09,14,22.60
2015,06,26,09,15,22.60
2015,06,26,09,16,22.60
2015,06,26,09,17,22.60
2015,06,26,09,18,22.70
2015,06,26,09,19,22.70
2015,06,26,09,20,22.80
2015,06,26,09,21,22.80
2015,06,26,09,22,22.80
2015,06,26,09,23,22.90
2015,06,26,09,24,22.90
2015,06,26,09,25,22.90
2015,06,26,09,26,22.90
2015,06,26,09,27,22.90
2015,06,26,09,28,22.90
2015,06,26,09,29,22.80
2015,06,26,09,30,22.80
2015,06,26,09,31,22.70
2015,06,26,09,32,22.70
2015,06,26,09,33,22.60
2015,06,26,09,34,22.60
2015,06,26,09,35,22.60
2015,06,26,09,36,22.50
2015,06,26,09,37,22.50
2015,06,26,09,38,22.40
2015,06,26,09,39,22.40
2015,06,26,09,40,22.50
2015,06,26,09,41,22.50
2015,06,26,09,42,22.60
2015,06,26,09,43,22.50
2015,06,26,09,44,22.40
2015,06,26,09,45,22.30
2015,06,26,09,46,22.20
2015,06,26,09,47,22.20
2015,06,26,09,48,22.30
2015,06,26,09,49,22.30
2015,06,26,09,50,22.40
2015,06,26,09,51,22.50
2015,06,26,09,52,22.50
2015,06,26,09,53,22.50
2015,06,26,09,54,22.50
2015,06,26,09,55,22.50
2015,06,26,09,56,22.60
2015,06,26,09,57,22.50
2015,06,26,09,58,22.50
2015,06,26,09,59,22.50
2015,06,26,10,00,22.50
2015,06,26,10,01,22.50
2015,06,26,10,02,22.50
2015,06,26,10,03,22.60
2015,06,26,10,04,22.70
2015,06,26,10,05,22.80
2015,06,26,10,06,22.80
2015,06,26,10,07,22.90
2015,06,26,10,08,22.90
2015,06,26,10,09,22.90
2015,06,26,10,10,22.80
2015,06,26,10,11,22.90
2015,06,26,10,12,22.90
2015,06,26,10,13,22.90
2015,06,26,10,14,22.90
2015,06,26,10,15,22.90
2015,06,26,10,16,22.90
2015,06,26,10,17,23.00
2015,06,26,10,18,23.00
2015,06,26,10,19,22.90
2015,06,26,10,20,22.90
2015,06,26,10,21,22.90
2015,06,26,10,22,22.90
2015,06,26,10,23,22.90
2015,06,26,10,24,22.80
2015,06,26,10,25,22.80
2015,06,26,10,26,22.80
2015,06,26,10,27,22.90
2015,06,26,10,28,22.90
2015,06,26,10,29,22.90
2015,06,26,10,30,22.90
2015,06,26,10,31,23.00
2015,06,26,10,32,23.10
2015,06,26,10,33,23.20
2015,06,26,10,34,23.30
2015,06,26,10,35,23.30
2015,06,26,10,36,23.30
2015,06,26,10,37,23.30
2015,06,26,10,38,23.30
2015,06,26,10,39,23.40
2015,06,26,10,40,23.50
2015,06,26,10,41,23.50
2015,06,26,10,42,23.40
2015,06,26,10,43,23.40
2015,06,26,10,44,23.30
2015,06,26,10,45,23.30
2015,06,26,10,46,23.30
2015,06,26,10,47,23.40
2015,06,26,10,48,23.40
2015,06,26,10,49,23.40
2015,06,26,10,50,23.30
2015,06,26,10,51,23.30
2015,06,26,10,52,23.30
2015,06,26,10,53,23.20
2015,06,26,10,54,23.10
2015,06,26,10,55,23.10
2015,06,26,10,56,23.10
2015,06,26,10,57,23.20
2015,06,26,10,58,23.20
2015,06,26,10,59,23.20
2015,06,26,11,00,23.30
2015,06,26,11,01,23.50
2015,06,26,11,02,23.60
2015,06,26,11,03,23.70
2015,06,26,11,04,23.80
2015,06,26,11,05,23.90
2015,06,26,11,06,23.90
2015,06,26,11,07,24.00
2015,06,26,11,08,24.00
2015,06,26,11,09,24.00
2015,06,26,11,10,24.00
2015,06,26,11,11,24.00
2015,06,26,11,12,24.10
2015,06,26,11,13,24.10
2015,06,26,11,14,24.20
2015,06,26,11,15,24.20
2015,06,26,11,16,24.20
2015,06,26,11,17,24.30
2015,06,26,11,18,24.30
2015,06,26,11,19,24.30
2015,06,26,11,20,24.30
2015,06,26,11,21,24.10
2015,06,26,11,22,24.00
2015,06,26,11,23,23.90
2015,06,26,11,24,23.90
2015,06,26,11,25,23.90
2015,06,26,11,26,23.80
2015,06,26,11,27,23.80
2015,06,26,11,28,23.90
2015,06,26,11,29,23.90
2015,06,26,11,30,24.00
2015,06,26,11,31,24.00
2015,06,26,11,32,23.90
2015,06,26,11,33,23.80
2015,06,26,11,34,23.70
2015,06,26,11,35,23.60
2015,06,26,11,36,23.50
2015,06,26,11,37,23.40
2015,06,26,11,38,23.40
2015,06,26,11,39,23.40
2015,06,26,11,40,23.50
2015,06,26,11,41,23.60
2015,06,26,11,42,23.70
2015,06,26,11,43,23.70
2015,06,26,11,44,23.70
2015,06,26,11,45,23.70
2015,06,26,11,46,23.80
2015,06,26,11,47,23.80
2015,06,26,11,48,23.80
2015,06,26,11,49,23.80
2015,06,26,11,50,23.90
2015,06,26,11,51,23.90
2015,06,26,11,52,23.90
2015,06,26,11,53,24.00
2015,06,26,11,54,24.10
2015,06,26,11,55,24.10
2015,06,26,11,56,24.20
2015,06,26,11,57,24.30
2015,06,26,11,58,24.40
2015,06,26,11,59,24.50
2015,06,26,12,00,24.40
2015,06,26,12,01,24.40
2015,06,26,12,02,24.40
2015,06,26,12,03,24.50
2015,06,26,12,04,24.60
2015,06,26,12,05,24.60
2015,06,26,12,06,24.70
2015,06,26,12,07,24.70
2015,06,26,12,08,24.80
2015,06,26,12,09,24.80
2015,06,26,12,10,24.80
2015,06,26,12,11,24.90
2015,06,26,12,12,24.80
2015,06,26,12,13,24.70
2015,06,26,12,14,24.60
2015,06,26,12,15,24.60
2015,06,26,12,16,24.60
2015,06,26,12,17,24.70
2015,06,26,12,18,24.70
2015,06,26,12,19,24.80
2015,06,26,12,20,24.80
2015,06,26,12,21,24.80
2015,06,26,12,22,24.80
2015,06,26,12,23,24.90
2015,06,26,12,24,24.90
2015,06,26,12,25,25.00
2015,06,26,12,26,25.10
2015,06,26,12,27,25.10
2015,06,26,12,28,25.10
2015,06,26,12,29,25.10
2015,06,26,12,30,25.10
2015,06,26,12,31,25.10
2015,06,26,12,32,25.10
2015,06,26,12,33,25.10
2015,06,26,12,34,25.20
2015,06,26,12,35,25.20
2015,06,26,12,36,25.30
2015,06,26,12,37,25.30
2015,06,26,12,38,25.20
2015,06,26,12,39,25.10
2015,06,26,12,40,25.00
2015,06,26,12,41,24.90
2015,06,26,12,42,24.90
2015,06,26,12,43,24.90
2015,06,26,12,44,24.90
2015,06,26,12,45,24.90
2015,06,26,12,46,24.90
2015,06,26,12,47,24.90
2015,06,26,12,48,24.70
2015,06,26,12,49,24.60
2015,06,26,12,50,24.50
2015,06,26,12,51,24.40
2015,06,26,12,52,24.40
2015,06,26,12,53,24.30
2015,06,26,12,54,24.10
2015,06,26,12,55,24.10
2015,06,26,12,56,24.00
2015,06,26,12,57,24.00
2015,06,26,12,58,23.90
2015,06,26,12,59,23.90
2015,06,26,13,00,23.80
2015,06,26,13,01,23.80
2015,06,26,13,02,23.80
2015,06,26,13,03,23.90
2015,06,26,13,04,24.00
2015,06,26,13,05,24.00
2015,06,26,13,06,23.90
2015,06,26,13,07,24.00
2015,06,26,13,08,24.00
2015,06,26,13,09,24.10
2015,06,26,13,10,24.10
2015,06,26,13,11,24.20
2015,06,26,13,12,24.20
2015,06,26,13,13,24.20
2015,06,26,13,14,24.20
2015,06,26,13,15,24.20
2015,06,26,13,16,24.10
2015,06,26,13,17,23.90
2015,06,26,13,18,23.80
2015,06,26,13,19,23.80
2015,06,26,13,20,23.90
2015,06,26,13,21,23.90
2015,06,26,13,22,24.00
2015,06,26,13,23,24.00
2015,06,26,13,24,24.10
2015,06,26,13,25,24.10
2015,06,26,13,26,24.20
2015,06,26,13,27,24.20
2015,06,26,13,28,24.20
2015,06,26,13,29,24.30
2015,06,26,13,30,24.30
2015,06,26,13,31,24.30
2015,06,26,13,32,24.40
2015,06,26,13,33,24.50
2015,06,26,13,34,24.50
2015,06,26,13,35,24.50
2015,06,26,13,36,24.50
2015,06,26,13,37,24.60
2015,06,26,13,38,24.60
2015,06,26,13,39,24.60
2015,06,26,13,40,24.70
2015,06,26,13,41,24.70
2015,06,26,13,42,24.80
2015,06,26,13,43,24.80
2015,06,26,13,44,24.80
2015,06,26,13,45,24.80
2015,06,26,13,46,24.90
2015,06,26,13,47,24.80
2015,06,26,13,48,24.90
2015,06,26,13,49,24.80
2015,06,26,13,50,24.80
2015,06,26,13,51,24.70
2015,06,26,13,52,24.60
2015,06,26,13,53,24.60
2015,06,26,13,54,24.60
2015,06,26,13,55,24.60
2015,06,26,13,56,24.60
2015,06,26,13,57,24.60
2015,06,26,13,58,24.70
2015,06,26,13,59,24.70
2015,06,26,14,00,24.80
2015,06,26,14,01,24.80
2015,06,26,14,02,24.80
2015,06,26,14,03,24.80
2015,06,26,14,04,24.80
2015,06,26,14,05,24.80
2015,06,26,14,06,24.80
2015,06,26,14,07,24.90
2015,06,26,14,08,25.00
2015,06,26,14,09,25.00
2015,06,26,14,10,25.10
2015,06,26,14,11,25.20
2015,06,26,14,12,25.20
2015,06,26,14,13,25.30
2015,06,26,14,14,25.40
2015,06,26,14,15,25.50
2015,06,26,14,16,25.50
2015,06,26,14,17,25.60
2015,06,26,14,18,25.60
2015,06,26,14,19,25.60
2015,06,26,14,20,25.70
2015,06,26,14,21,25.70
2015,06,26,14,22,25.70
2015,06,26,14,23,25.80
2015,06,26,14,24,25.80
2015,06,26,14,25,25.80
2015,06,26,14,26,25.90
2015,06,26,14,27,26.00
2015,06,26,14,28,26.00
2015,06,26,14,29,26.10
2015,06,26,14,30,26.00
2015,06,26,14,31,25.90
2015,06,26,14,32,25.90
2015,06,26,14,33,25.90
2015,06,26,14,34,26.00
2015,06,26,14,35,26.00
2015,06,26,14,36,26.00
2015,06,26,14,37,26.00
2015,06,26,14,38,26.00
2015,06,26,14,39,26.10
2015,06,26,14,40,26.00
2015,06,26,14,41,26.00
2015,06,26,14,42,26.00
2015,06,26,14,43,26.10
2015,06,26,14,44,26.20
2015,06,26,14,45,26.30
2015,06,26,14,46,26.40
2015,06,26,14,47,26.40
2015,06,26,14,48,26.30
2015,06,26,14,49,26.30
2015,06,26,14,50,26.30
2015,06,26,14,51,26.40
2015,06,26,14,52,26.50
2015,06,26,14,53,26.50
2015,06,26,14,54,26.70
2015,06,26,14,55,26.70
2015,06,26,14,56,26.70
2015,06,26,14,57,26.70
2015,06,26,14,58,26.70
2015,06,26,14,59,26.70
2015,06,26,15,00,26.70
2015,06,26,15,01,26.60
2015,06,26,15,02,26.60
2015,06,26,15,03,26.50
2015,06,26,15,04,26.60
2015,06,26,15,05,26.60
2015,06,26,15,06,26.60
2015,06,26,15,07,26.60
2015,06,26,15,08,26.70
2015,06,26,15,09,26.70
2015,06,26,15,10,26.60
2015,06,26,15,11,26.70
2015,06,26,15,12,26.70
2015,06,26,15,13,26.70
2015,06,26,15,14,26.70
2015,06,26,15,15,26.70
2015,06,26,15,16,26.70
2015,06,26,15,17,26.60
2015,06,26,15,18,26.60
2015,06,26,15,19,26.60
2015,06,26,15,20,26.60
2015,06,26,15,21,26.60
2015,06,26,15,22,26.60
2015,06,26,15,23,26.50
2015,06,26,15,24,26.50
2015,06,26,15,25,26.40
2015,06,26,15,26,26.50
2015,06,26,15,27,26.50
2015,06,26,15,28,26.50
2015,06,26,15,29,26.40
2015,06,26,15,30,26.20
2015,06,26,15,31,26.10
2015,06,26,15,32,26.10
2015,06,26,15,33,26.00
2015,06,26,15,34,25.90
2015,06,26,15,35,25.80
2015,06,26,15,36,25.80
2015,06,26,15,37,25.70
2015,06,26,15,38,25.60
2015,06,26,15,39,25.60
2015,06,26,15,40,25.70
2015,06,26,15,41,25.70
2015,06,26,15,42,25.70
2015,06,26,15,43,25.70
2015,06,26,15,44,25.70
2015,06,26,15,45,25.80
2015,06,26,15,46,25.90
2015,06,26,15,47,26.00
2015,06,26,15,48,26.20
2015,06,26,15,49,26.20
2015,06,26,15,50,26.30
2015,06,26,15,51,26.50
2015,06,26,15,52,26.60
2015,06,26,15,53,26.60
2015,06,26,15,54,26.70
2015,06,26,15,55,26.70
2015,06,26,15,56,26.70
2015,06,26,15,57,26.70
2015,06,26,15,58,26.60
2015,06,26,15,59,26.60
2015,06,26,16,00,26.60
2015,06,26,16,01,26.50
2015,06,26,16,02,26.40
2015,06,26,16,03,26.40
2015,06,26,16,04,26.40
2015,06,26,16,05,26.40
2015,06,26,16,06,26.30
2015,06,26,16,07,26.30
2015,06,26,16,08,26.30
2015,06,26,16,09,26.30
2015,06,26,16,10,26.30
2015,06,26,16,11,26.30
2015,06,26,16,12,26.30
2015,06,26,16,13,26.30
2015,06,26,16,14,26.30
2015,06,26,16,15,26.30
2015,06,26,16,16,26.30
2015,06,26,16,17,26.30
2015,06,26,16,18,26.30
2015,06,26,16,19,26.30
2015,06,26,16,20,26.30
2015,06,26,16,21,26.30
2015,06,26,16,22,26.30
2015,06,26,16,23,26.20
2015,06,26,16,24,26.30
2015,06,26,16,25,26.30
2015,06,26,16,26,26.30
2015,06,26,16,27,26.30
2015,06,26,16,28,26.30
2015,06,26,16,29,26.30
2015,06,26,16,30,26.40
2015,06,26,16,31,26.40
2015,06,26,16,32,26.50
2015,06,26,16,33,26.50
2015,06,26,16,34,26.60
2015,06,26,16,35,26.60
2015,06,26,16,36,26.60
2015,06,26,16,37,26.60
2015,06,26,16,38,26.60
2015,06,26,16,39,26.60
2015,06,26,16,40,26.60
2015,06,26,16,41,26.70
2015,06,26,16,42,26.80
2015,06,26,16,43,26.80
2015,06,26,16,44,26.80
2015,06,26,16,45,26.90
2015,06,26,16,46,26.80
2015,06,26,16,47,26.80
2015,06,26,16,48,26.80
2015,06,26,16,49,26.90
2015,06,26,16,50,26.90
2015,06,26,16,51,27.00
2015,06,26,16,52,27.00
2015,06,26,16,53,27.00
2015,06,26,16,54,27.00
2015,06,26,16,55,27.00
2015,06,26,16,56,27.10
2015,06,26,16,57,27.10
2015,06,26,16,58,27.10
2015,06,26,16,59,27.10
2015,06,26,17,00,27.10
2015,06,26,17,01,27.20
2015,06,26,17,02,27.20
2015,06,26,17,03,27.30
2015,06,26,17,04,27.30
2015,06,26,17,05,27.30
2015,06,26,17,06,27.40
2015,06,26,17,07,27.50
2015,06,26,17,08,27.70
2015,06,26,17,09,27.80
2015,06,26,17,10,27.80
2015,06,26,17,11,27.90
2015,06,26,17,12,27.90
2015,06,26,17,13,27.80
2015,06,26,17,14,27.80
2015,06,26,17,15,27.70
2015,06,26,17,16,27.70
2015,06,26,17,17,27.70
2015,06,26,17,18,27.70
2015,06,26,17,19,27.60